| time (UTC) | temp C | wind direction | speed KPH | gust KPH | rain 1hr cm | rain 24hr cm | rain mn cm | humidity % | barometer mb |
| 20260507084539 | 12 | 51 | 4.8 | 8.0 | 0.00 | 0.00 | 0.00 | 46 | 1013.6 |
| 20260507083032 | 11 | 64 | 0.0 | 6.4 | 0.00 | 0.00 | 0.00 | 49 | 1013.5 |
| 20260507081532 | 11 | 44 | 3.2 | 8.0 | 0.00 | 0.00 | 0.00 | 49 | 1013.4 |
| 20260507080030 | 11 | 66 | 3.2 | 6.4 | 0.00 | 0.00 | 0.00 | 48 | 1013.3 |
| 20260507074529 | 11 | 315 | 1.6 | 6.4 | 0.00 | 0.00 | 0.00 | 49 | 1013.3 |
| 20260507073027 | 10 | 72 | 1.6 | 9.7 | 0.00 | 0.00 | 0.00 | 50 | 1013.3 |
| 20260507071531 | 10 | 70 | 0.0 | 4.8 | 0.00 | 0.00 | 0.00 | 51 | 1013.2 |
| 20260507070020 | 9 | 19 | 1.6 | 8.0 | 0.00 | 0.00 | 0.00 | 54 | 1013.2 |
| 20260507064533 | 9 | 63 | 4.8 | 9.7 | 0.00 | 0.00 | 0.00 | 55 | 1013.1 |
| 20260507063019 | 8 | 43 | 1.6 | 9.7 | 0.00 | 0.00 | 0.00 | 57 | 1013.0 |
| 20260507061515 | 8 | 40 | 3.2 | 8.0 | 0.00 | 0.00 | 0.00 | 59 | 1012.9 |
| 20260507060012 | 7 | 350 | 3.2 | 8.0 | 0.00 | 0.00 | 0.00 | 59 | 1012.8 |
| 20260507054510 | 7 | 53 | 4.8 | 9.7 | 0.00 | 0.00 | 0.00 | 60 | 1012.7 |
| 20260507053008 | 7 | 37 | 4.8 | 11.3 | 0.00 | 0.00 | 0.00 | 60 | 1012.7 |
| 20260507051505 | 7 | 34 | 4.8 | 11.3 | 0.00 | 0.00 | 0.00 | 59 | 1012.6 |
| 20260507050010 | 6 | 344 | 1.6 | 8.0 | 0.00 | 0.00 | 0.00 | 60 | 1012.7 |
| 20260507044600 | 6 | 13 | 1.6 | 4.8 | 0.00 | 0.00 | 0.00 | 60 | 1012.7 |
| 20260507043057 | 5 | 33 | 0.0 | 6.4 | 0.00 | 0.00 | 0.00 | 61 | 1012.6 |
| 20260507041552 | 4 | 296 | 3.2 | 8.0 | 0.00 | 0.00 | 0.00 | 64 | 1012.5 |
| 20260507040048 | 3 | 318 | 1.6 | 6.4 | 0.00 | 0.00 | 0.00 | 66 | 1012.4 |
| 20260507034546 | 3 | 324 | 3.2 | 6.4 | 0.00 | 0.00 | 0.00 | 70 | 1012.3 |
| 20260507033045 | 2 | 308 | 0.0 | 4.8 | 0.00 | 0.00 | 0.00 | 71 | 1012.2 |
| 20260507031545 | 2 | 321 | 1.6 | 4.8 | 0.00 | 0.00 | 0.00 | 71 | 1012.2 |
| 20260507030044 | 2 | 288 | 1.6 | 8.0 | 0.00 | 0.00 | 0.00 | 73 | 1012.1 |
| 20260507024543 | 2 | 314 | 0.0 | 4.8 | 0.00 | 0.00 | 0.00 | 74 | 1012.3 |
| 20260507023043 | 2 | 296 | 0.0 | 3.2 | 0.00 | 0.00 | 0.00 | 75 | 1012.4 |
| 20260507021543 | 2 | 313 | 0.0 | 1.6 | 0.00 | 0.00 | 0.00 | 75 | 1012.4 |
| 20260507020120 | 2 | 313 | 0.0 | 1.6 | 0.00 | 0.00 | 0.00 | 74 | 1012.4 |
| 20260507014544 | 2 | 317 | 0.0 | 3.2 | 0.00 | 0.00 | 0.00 | 71 | 1012.4 |
| 20260507013036 | 2 | 310 | 0.0 | 6.4 | 0.00 | 0.00 | 0.00 | 70 | 1012.3 |
| 20260507011539 | 3 | 276 | 1.6 | 8.0 | 0.00 | 0.00 | 0.00 | 69 | 1012.2 |
| 20260507010049 | 3 | 324 | 1.6 | 6.4 | 0.00 | 0.00 | 0.00 | 69 | 1012.1 |
| 20260507004535 | 3 | 286 | 1.6 | 8.0 | 0.00 | 0.00 | 0.00 | 69 | 1012.0 |
| 20260507003030 | 3 | 303 | 3.2 | 6.4 | 0.00 | 0.00 | 0.00 | 71 | 1012.0 |
| 20260507001530 | 2 | 270 | 0.0 | 8.0 | 0.00 | 0.00 | 0.00 | 72 | 1012.1 |
| 20260507000029 | 2 | 260 | 0.0 | 3.2 | 0.00 | 0.00 | 0.00 | 72 | 1012.1 |
| 20260506234530 | 2 | 301 | 0.0 | 1.6 | 0.00 | 0.00 | 0.00 | 71 | 1012.0 |
| 20260506233025 | 2 | 301 | 0.0 | 1.6 | 0.00 | 0.00 | 0.00 | 69 | 1012.0 |
| 20260506231522 | 2 | 301 | 0.0 | 1.6 | 0.00 | 0.00 | 0.00 | 67 | 1012.1 |
| 20260506230025 | 3 | 337 | 0.0 | 4.8 | 0.00 | 0.00 | 0.00 | 65 | 1012.1 |
| 20260506224518 | 3 | 309 | 0.0 | 4.8 | 0.00 | 0.00 | 0.00 | 65 | 1011.9 |
| 20260506223015 | 3 | 299 | 1.6 | 6.4 | 0.00 | 0.00 | 0.00 | 63 | 1012.0 |
| 20260506221512 | 3 | 310 | 0.0 | 4.8 | 0.00 | 0.00 | 0.00 | 63 | 1012.0 |
| 20260506220015 | 3 | 298 | 0.0 | 3.2 | 0.00 | 0.00 | 0.00 | 61 | 1011.9 |
| 20260506214509 | 4 | 296 | 0.0 | 4.8 | 0.00 | 0.00 | 0.00 | 59 | 1011.9 |
| 20260506213008 | 5 | 304 | 1.6 | 6.4 | 0.00 | 0.00 | 0.00 | 57 | 1011.8 |
| 20260506211508 | 5 | 287 | 1.6 | 8.0 | 0.00 | 0.00 | 0.00 | 57 | 1011.7 |
| 20260506210008 | 5 | 293 | 0.0 | 6.4 | 0.00 | 0.00 | 0.00 | 55 | 1011.8 |
| 20260506204507 | 6 | 279 | 3.2 | 9.7 | 0.00 | 0.00 | 0.00 | 53 | 1011.7 |
| 20260506203006 | 6 | 304 | 3.2 | 12.9 | 0.00 | 0.00 | 0.00 | 53 | 1011.6 |
| 20260506201520 | 6 | 284 | 3.2 | 8.0 | 0.00 | 0.00 | 0.00 | 52 | 1011.7 |
| 20260506200005 | 6 | 317 | 3.2 | 9.7 | 0.00 | 0.00 | 0.00 | 51 | 1011.6 |
| 20260506194507 | 6 | 250 | 3.2 | 11.3 | 0.00 | 0.00 | 0.00 | 51 | 1011.6 |
| 20260506193004 | 6 | 270 | 3.2 | 12.9 | 0.00 | 0.00 | 0.00 | 50 | 1011.5 |
| 20260506191503 | 7 | 311 | 0.0 | 11.3 | 0.00 | 0.00 | 0.00 | 49 | 1011.4 |
| 20260506190004 | 7 | 259 | 3.2 | 16.1 | 0.00 | 0.00 | 0.00 | 47 | 1011.3 |
| 20260506184504 | 8 | 270 | 4.8 | 11.3 | 0.00 | 0.00 | 0.00 | 45 | 1011.3 |
| 20260506183001 | 8 | 296 | 1.6 | 11.3 | 0.00 | 0.00 | 0.00 | 44 | 1011.1 |
| 20260506181501 | 9 | 294 | 3.2 | 14.5 | 0.00 | 0.00 | 0.00 | 42 | 1010.9 |
| 20260506180100 | 9 | 230 | 4.8 | 16.1 | 0.00 | 0.00 | 0.00 | 40 | 1010.8 |
| 20260506174558 | 10 | 312 | 4.8 | 16.1 | 0.00 | 0.00 | 0.00 | 39 | 1010.7 |
| 20260506173100 | 10 | 268 | 6.4 | 17.7 | 0.00 | 0.00 | 0.00 | 36 | 1010.6 |
| 20260506171608 | 10 | 90 | 3.2 | 22.5 | 0.00 | 0.00 | 0.00 | 37 | 1010.6 |
| 20260506170100 | 11 | 306 | 9.7 | 17.7 | 0.00 | 0.00 | 0.00 | 35 | 1010.5 |
| 20260506164556 | 11 | 275 | 6.4 | 12.9 | 0.00 | 0.00 | 0.00 | 32 | 1010.4 |
| 20260506163106 | 11 | 301 | 4.8 | 14.5 | 0.00 | 0.00 | 0.00 | 33 | 1010.4 |
| 20260506161555 | 11 | 265 | 6.4 | 16.1 | 0.00 | 0.00 | 0.00 | 32 | 1010.4 |
| 20260506160107 | 11 | 287 | 6.4 | 19.3 | 0.00 | 0.00 | 0.00 | 31 | 1010.4 |
| 20260506154552 | 12 | 357 | 11.3 | 19.3 | 0.00 | 0.00 | 0.00 | 30 | 1010.3 |
| 20260506153051 | 12 | 251 | 6.4 | 12.9 | 0.00 | 0.00 | 0.00 | 30 | 1010.2 |
| 20260506151550 | 12 | 271 | 8.0 | 19.3 | 0.00 | 0.00 | 0.00 | 29 | 1010.3 |
| 20260506150053 | 12 | 275 | 8.0 | 17.7 | 0.00 | 0.00 | 0.00 | 29 | 1010.3 |
| 20260506144558 | 12 | 289 | 6.4 | 20.9 | 0.00 | 0.00 | 0.00 | 30 | 1010.3 |
| 20260506143042 | 12 | 308 | 6.4 | 22.5 | 0.00 | 0.00 | 0.00 | 29 | 1010.3 |
| 20260506141540 | 13 | 266 | 6.4 | 16.1 | 0.00 | 0.00 | 0.00 | 30 | 1010.3 |
| 20260506140038 | 13 | 298 | 1.6 | 9.7 | 0.00 | 0.00 | 0.00 | 28 | 1010.4 |
| 20260506134536 | 13 | 310 | 4.8 | 12.9 | 0.00 | 0.00 | 0.00 | 25 | 1010.4 |
| 20260506133036 | 13 | 36 | 4.8 | 11.3 | 0.00 | 0.00 | 0.00 | 25 | 1010.4 |
| 20260506131541 | 12 | 74 | 8.0 | 14.5 | 0.00 | 0.00 | 0.00 | 25 | 1010.5 |
| 20260506130030 | 13 | 5 | 8.0 | 16.1 | 0.00 | 0.00 | 0.00 | 25 | 1010.6 |
| 20260506124533 | 13 | 282 | 4.8 | 11.3 | 0.00 | 0.00 | 0.00 | 27 | 1010.7 |
| 20260506123027 | 13 | 5 | 1.6 | 12.9 | 0.00 | 0.00 | 0.00 | 25 | 1010.8 |
| 20260506121525 | 13 | 14 | 3.2 | 16.1 | 0.00 | 0.00 | 0.00 | 24 | 1010.9 |
| 20260506120104 | 13 | 229 | 3.2 | 9.7 | 0.00 | 0.00 | 0.00 | 27 | 1011.0 |
| 20260506114559 | 13 | 49 | 4.8 | 12.9 | 0.00 | 0.00 | 0.00 | 25 | 1011.2 |
| 20260506113056 | 12 | 268 | 3.2 | 12.9 | 0.00 | 0.00 | 0.00 | 26 | 1011.2 |
| 20260506111555 | 12 | 232 | 6.4 | 17.7 | 0.00 | 0.00 | 0.00 | 27 | 1011.1 |
| 20260506110053 | 12 | 279 | 3.2 | 14.5 | 0.00 | 0.00 | 0.00 | 27 | 1011.2 |
| 20260506104558 | 12 | 246 | 4.8 | 14.5 | 0.00 | 0.00 | 0.00 | 25 | 1011.3 |
| 20260506103053 | 12 | 7 | 0.0 | 9.7 | 0.00 | 0.00 | 0.00 | 26 | 1011.4 |
| 20260506101549 | 11 | 270 | 4.8 | 14.5 | 0.00 | 0.00 | 0.00 | 26 | 1011.7 |
| 20260506100103 | 11 | 249 | 4.8 | 14.5 | 0.00 | 0.00 | 0.00 | 25 | 1011.9 |
| 20260506094546 | 12 | 248 | 0.0 | 12.9 | 0.00 | 0.00 | 0.00 | 27 | 1011.8 |
| 20260506093046 | 12 | 73 | 4.8 | 11.3 | 0.00 | 0.00 | 0.00 | 26 | 1011.9 |
| 20260506091547 | 11 | 52 | 0.0 | 8.0 | 0.00 | 0.00 | 0.00 | 27 | 1012.0 |
| 20260506090041 | 11 | 310 | 1.6 | 6.4 | 0.00 | 0.00 | 0.00 | 27 | 1012.2 |